Weather History for O'Neill, NE

Change the Weather History Date:

Friday, September 14, 2012

  Actual Average Record
Temperature  
Mean Temperature 62 °F -  
Max Temperature 81 °F 73 °F 96 °F (1948)
Min Temperature 45 °F 48 °F 33 °F (2007)
Degree Days  
Heating Degree Days 2    
Growing Degree Days 12 (Base 50)    
Moisture  
Dew Point 38 °F    
Average Humidity 42    
Maximum Humidity 75    
Minimum Humidity 19    
Precipitation  
Precipitation 0.00 in - - ()
Sea Level Pressure  
Sea Level Pressure 30.29 in    
Wind  
Wind Speed 7 mph (West)    
Max Wind Speed 12 mph    
Max Gust Speed 16 mph    
Visibility 10 miles    
Events      
Averages and records for this station are not official NWS values.
T = Trace of Precipitation, MM = Missing Value Source: NWS Daily Summary

Daily Weather History Graph

Daily Weather History Graph

Search for Another Location

Airport:

Trip Planner

Search our weather history database for the weather conditions in past years. The results will help you decide how hot, cold, wet, or windy it might be!

Date:

Astronomy

Sep. 14, 2012 Rise Set
Actual Time 7:14 AM CDT 7:45 PM CDT
Civil Twilight 6:45 AM CDT 8:13 PM CDT
Nautical Twilight 6:12 AM CDT 8:46 PM CDT
Astronomical Twilight 5:38 AM CDT 9:21 PM CDT
Moon 5:39 AM CDT (9/14) 6:42 PM CDT (9/14)
Length of Visible Light 13h 27m
Length of Day
12h 31m
Waning Crescent, 2% of the Moon is Illuminated
Sep 14
Waning Crescent
Sep 15
New
Sep 22
First Quarter
Sep 29
Full
Oct 8
Last Quarter

Hourly Weather History & Observations

Time (CDT) Temp. Windchill Dew Point Humidity Pressure Visibility Wind Dir Wind Speed Gust Speed Precip Events Conditions
12:15 AM 56.7 °F - 36.7 °F 47% 30.34 in 10.0 mi SW 3.5 mph - N/A   Clear
12:35 AM 56.3 °F - 37.2 °F 49% 30.34 in 10.0 mi SW 6.9 mph - N/A   Clear
12:55 AM 55.2 °F - 37.4 °F 51% 30.33 in 10.0 mi SW 6.9 mph - N/A   Clear
1:15 AM 54.9 °F - 37.8 °F 53% 30.34 in 10.0 mi SW 6.9 mph - N/A   Clear
1:35 AM 54.5 °F - 37.9 °F 54% 30.34 in 10.0 mi SW 8.1 mph - N/A   Clear
1:55 AM 54.9 °F - 38.1 °F 53% 30.34 in 10.0 mi SW 9.2 mph - N/A   Clear
2:15 AM 54.0 °F - 38.3 °F 55% 30.33 in 10.0 mi SW 10.4 mph - N/A   Clear
2:35 AM 53.2 °F - 37.9 °F 56% 30.33 in 10.0 mi SW 9.2 mph - N/A   Clear
2:55 AM 52.9 °F - 37.9 °F 57% 30.33 in 10.0 mi SW 10.4 mph - N/A   Clear
3:15 AM 51.6 °F - 37.8 °F 59% 30.33 in 10.0 mi SW 9.2 mph - N/A   Clear
3:35 AM 51.8 °F - 37.4 °F 58% 30.32 in 10.0 mi SW 9.2 mph - N/A   Clear
3:55 AM 51.3 °F - 37.4 °F 59% 30.32 in 10.0 mi SW 9.2 mph - N/A   Clear
4:15 AM 51.3 °F - 37.4 °F 59% 30.31 in 10.0 mi SW 9.2 mph - N/A   Clear
4:35 AM 50.2 °F - 37.6 °F 62% 30.31 in 10.0 mi SW 9.2 mph - N/A   Clear
4:55 AM 49.5 °F - 37.4 °F 63% 30.31 in 10.0 mi SW 8.1 mph - N/A   Clear
5:15 AM 48.4 °F - 37.4 °F 66% 30.31 in 10.0 mi SW 5.8 mph - N/A   Clear
5:35 AM 47.3 °F - 37.4 °F 68% 30.30 in 10.0 mi SW 5.8 mph - N/A   Clear
5:55 AM 47.5 °F - 37.6 °F 69% 30.31 in 10.0 mi SW 4.6 mph - N/A   Clear
6:15 AM 48.2 °F - 38.1 °F 68% 30.31 in 10.0 mi SW 8.1 mph - N/A   Clear
6:35 AM 47.5 °F - 38.3 °F 70% 30.31 in 10.0 mi WSW 6.9 mph - N/A   Clear
6:55 AM 46.2 °F 42.7 °F 37.9 °F 73% 30.31 in 10.0 mi WSW 6.9 mph - N/A   Clear
7:15 AM 45.7 °F 42.0 °F 38.1 °F 75% 30.31 in 10.0 mi WSW 6.9 mph - N/A   Clear
7:35 AM 47.3 °F - 39.0 °F 73% 30.32 in 10.0 mi WSW 6.9 mph - N/A   Clear
7:55 AM 48.4 °F - 39.6 °F 72% 30.32 in 10.0 mi WSW 8.1 mph - N/A   Clear
8:15 AM 50.7 °F - 39.7 °F 66% 30.32 in 10.0 mi WSW 6.9 mph - N/A   Clear
8:35 AM 52.7 °F - 40.3 °F 63% 30.33 in 10.0 mi WSW 3.5 mph - N/A   Clear
8:55 AM 54.9 °F - 40.3 °F 58% 30.33 in 10.0 mi WSW 5.8 mph - N/A   Clear
9:15 AM 57.7 °F - 39.9 °F 51% 30.33 in 10.0 mi West 5.8 mph - N/A   Clear
9:35 AM 61.0 °F - 39.6 °F 45% 30.33 in 10.0 mi WNW 6.9 mph - N/A   Clear
9:55 AM 63.5 °F - 39.2 °F 41% 30.33 in 10.0 mi WNW 6.9 mph - N/A   Clear
10:15 AM 66.7 °F - 38.1 °F 35% 30.33 in 10.0 mi NW 5.8 mph - N/A   Clear
10:35 AM 68.4 °F - 38.3 °F 33% 30.33 in 10.0 mi WNW 5.8 mph - N/A   Clear
10:55 AM 70.7 °F - 38.1 °F 30% 30.34 in 10.0 mi NNW 6.9 mph - N/A   Clear
11:15 AM 72.7 °F - 37.9 °F 28% 30.34 in 10.0 mi North 8.1 mph - N/A   Clear
11:35 AM 74.3 °F - 37.9 °F 27% 30.34 in 10.0 mi North 6.9 mph - N/A   Clear
11:55 AM 75.6 °F - 37.8 °F 25% 30.34 in 10.0 mi North 5.8 mph - N/A   Clear
12:15 PM 75.4 °F - 37.2 °F 25% 30.33 in 10.0 mi North 8.1 mph - N/A   Clear
12:35 PM 77.0 °F - 37.0 °F 24% 30.33 in 10.0 mi NNE 9.2 mph - N/A   Clear
12:55 PM 76.3 °F - 36.7 °F 24% 30.33 in 10.0 mi NNW 4.6 mph - N/A   Clear
1:15 PM 77.7 °F - 36.9 °F 23% 30.32 in 10.0 mi NNW 6.9 mph - N/A   Clear
1:35 PM 77.0 °F - 36.5 °F 23% 30.32 in 10.0 mi NNW 4.6 mph - N/A   Clear
1:55 PM 77.9 °F - 36.9 °F 23% 30.31 in 10.0 mi NNW 9.2 mph - N/A   Clear
2:15 PM 78.4 °F - 37.2 °F 23% 30.30 in 10.0 mi NW 11.5 mph - N/A   Clear
2:35 PM 78.8 °F - 36.5 °F 22% 30.30 in 10.0 mi NW 8.1 mph - N/A   Clear
2:55 PM 79.0 °F - 36.3 °F 21% 30.29 in 10.0 mi North 8.1 mph - N/A   Clear
3:15 PM 79.5 °F - 34.9 °F 20% 30.28 in 10.0 mi SE 5.8 mph 16.1 mph N/A   Clear
3:35 PM 80.2 °F - 34.5 °F 19% 30.27 in 10.0 mi WSW 5.8 mph - N/A   Clear
3:55 PM 80.1 °F - 34.7 °F 19% 30.27 in 10.0 mi West 5.8 mph 16.1 mph N/A   Clear
4:15 PM 80.6 °F - 35.2 °F 20% 30.26 in 10.0 mi WNW 11.5 mph - N/A   Clear
4:35 PM 80.1 °F - 34.9 °F 20% 30.26 in 10.0 mi WNW 9.2 mph - N/A   Clear
4:55 PM 80.4 °F - 34.5 °F 19% 30.25 in 10.0 mi West 5.8 mph - N/A   Clear
5:15 PM 80.6 °F - 34.3 °F 19% 30.24 in 10.0 mi NW 10.4 mph - N/A   Clear
5:35 PM 80.1 °F - 34.7 °F 19% 30.24 in 10.0 mi NW 5.8 mph - N/A   Clear
5:55 PM 79.9 °F - 35.1 °F 20% 30.24 in 10.0 mi NW 6.9 mph - N/A   Clear
6:15 PM 79.7 °F - 34.7 °F 20% 30.24 in 10.0 mi NW 3.5 mph - N/A   Clear
6:35 PM 79.0 °F - 34.7 °F 20% 30.23 in 10.0 mi Calm Calm - N/A   Clear
6:55 PM 77.9 °F - 35.8 °F 22% 30.23 in 10.0 mi NNW 3.5 mph - N/A   Clear
7:15 PM 75.2 °F - 36.9 °F 25% 30.23 in 10.0 mi North 3.5 mph - N/A   Clear
7:35 PM 73.4 °F - 37.4 °F 27% 30.22 in 10.0 mi NNE 4.6 mph - N/A   Clear
7:55 PM 71.8 °F - 37.2 °F 28% 30.22 in 10.0 mi NE 4.6 mph - N/A   Clear
8:15 PM 65.8 °F - 37.8 °F 36% 30.23 in 10.0 mi East 4.6 mph - N/A   Clear
8:35 PM 66.0 °F - 37.9 °F 36% 30.23 in 10.0 mi NE 4.6 mph - N/A   Clear
8:55 PM 64.9 °F - 37.9 °F 37% 30.23 in 10.0 mi ENE 4.6 mph - N/A   Clear
9:15 PM 63.9 °F - 38.1 °F 39% 30.23 in 10.0 mi ESE 3.5 mph - N/A   Clear
9:35 PM 61.3 °F - 39.7 °F 45% 30.23 in 10.0 mi East 3.5 mph - N/A   Clear
9:55 PM 61.9 °F - 39.2 °F 43% 30.23 in 10.0 mi Calm Calm - N/A   Clear
10:15 PM 63.1 °F - 38.1 °F 40% 30.23 in 10.0 mi ESE 3.5 mph - N/A   Clear
10:35 PM 57.7 °F - 39.7 °F 51% 30.23 in 10.0 mi South 4.6 mph - N/A   Clear
10:55 PM 52.5 °F - 41.7 °F 67% 30.23 in 10.0 mi Calm Calm - N/A   Clear
11:15 PM 55.4 °F - 41.0 °F 58% 30.23 in 10.0 mi South 4.6 mph - N/A   Clear
11:35 PM 57.6 °F - 39.9 °F 52% 30.22 in 10.0 mi SSE 4.6 mph - N/A   Clear
11:55 PM 59.2 °F - 38.8 °F 47% 30.22 in 10.0 mi South 8.1 mph - N/A   Clear